Weather in Jieznas

Lithuania     54°35′59″N   24°10′18″E
temp.,
°C
wind,
m/s
gust,
m/s
humid.,
%
clouds,
%
prec.,
mm/h
press.,
hPa
HPBL,
m
28 july, wed
wed2800:00+19ssw2493100 0.1 101292
03:00+17wsw36955 0.1 1011118
06:00+17w22955 0.0 101222
09:00+21w128365 0.0 1012301
12:00+25wsw346146 0.0 1012982
15:00+27w455049 0.0 10111730
18:00+27wnw36501 0.0 10101780
21:00+23nnw006490 0.0 101011
29 july, thu
thu2900:00+20sse347680 0.1 101043
03:00+18ssw2292100 1.8 100927
06:00+18sw4995100 2.0 1009317
09:00+19wnw369094 2.4 1009343
12:00+23w35641 0.0 10091043
15:00+26w465080 0.0 10082142
18:00+23w376736 0.0 1008236
21:00+20wsw227394 0.1 100822
30 july, fri
fri3000:00+17w2286100 0.0 100923
03:00+17wnw228397 0.0 100941
06:00+15ssw359026 0.0 100974
09:00+20sw510647 0.0 1008641
12:00+22wsw61045100 0.0 10081900
15:00+21wsw61052100 0.0 1007849
18:00+21w4960100 0.0 1006589
21:00+18sw410640 0.0 1006294
31 july, sat
sat3100:00+15sw3107484 0.0 1006181
03:00+12wsw33870 0.0 100743
06:00+12ssw338493 0.0 100733
09:00+18ssw4663100 0.0 1007305
12:00+23sw4649100 0.0 1006842
15:00+23wsw7859100 0.1 1006906
18:00+20s3684100 1.5 1004249
21:00+18sw3792100 2.9 1004129
1 august, sun
sun100:00+16w4994100 0.1 1005185
03:00+14wsw34910 0.1 100647
06:00+12sw310910 0.0 1007203
09:00+17wsw5107797 0.0 1007515
12:00+21wsw685848 0.0 10081471
15:00+23w5749100 0.0 10081984
18:00+23wsw4554100 0.0 10081627
21:00+19w2270100 0.0 100720